Location: Audinghen
(50.8518°N, 1.6129°E)
Time: 10:40:43
(UTC+00:00)

Cosmos 2151 Rocket - Pass Details

Date: 07 August 2020
Orbit: 618 x 641 km, 82.5° (Epoch: 21 September)

Event Time Altitude Azimuth Distance (km) Brightness Sun altitude
Exits shadow 01:12:30 51° 161° (SSE) 787 3.7 -20.9°
Maximum altitude 01:13:30 71° 98° (E) 664 3.6 -20.9°
Drops below altitude 10° 01:17:54 10° 14° (NNE) 2,000 7.4 -20.6°
Sets 01:20:09 0° 13° (NNE) 2,910 8.5 -20.5°
